This is the latest recevied weather packets stored in our database for station/object AA9VI-10. If no packets are shown the sender has not sent any weather packets the latest 10 day(s).
| Time | Temp. | Humidity | Pressure | Rain* | Wind** | Luminosity | Snow |
|---|---|---|---|---|---|---|---|
| 1777765217 | 12.78° C | 40% | 1015.9 hPa | 0 mm | - | - | - |
| 1777764617 | 12.78° C | 36% | 1015.9 hPa | 0 mm | - | - | - |
| 1777764017 | 13.33° C | 35% | 1016 hPa | 0 mm | - | - | - |
| 1777763418 | 13.89° C | 35% | 1016.1 hPa | 0 mm | - | - | - |
| 1777762817 | 14.44° C | 34% | 1016.2 hPa | 0 mm | - | - | - |
| 1777762217 | 14.44° C | 39% | 1016.3 hPa | 0 mm | - | - | - |
| 1777761618 | 13.89° C | 37% | 1016.3 hPa | 0 mm | - | - | - |
| 1777761018 | 13.89° C | 36% | 1016.3 hPa | 0 mm | - | - | - |
| 1777760417 | 13.89° C | 34% | 1016.2 hPa | 0 mm | - | - | - |
| 1777759817 | 13.33° C | 39% | 1016.2 hPa | 0 mm | - | - | - |
| 1777759217 | 13.33° C | 39% | 1016.4 hPa | 0 mm | - | - | - |
| 1777758617 | 13.33° C | 37% | 1016.5 hPa | 0 mm | - | - | - |
| 1777758017 | 13.89° C | 37% | 1016.6 hPa | 0 mm | - | - | - |
| 1777757417 | 13.33° C | 38% | 1016.4 hPa | 0 mm | - | - | - |
| 1777756818 | 13.33° C | 41% | 1016.7 hPa | 0 mm | - | - | - |
| 1777756217 | 12.78° C | 41% | 1016.8 hPa | 0 mm | - | - | - |
| 1777755617 | 12.78° C | 40% | 1016.9 hPa | 0 mm | - | - | - |
| 1777755017 | 12.78° C | 39% | 1017 hPa | 0 mm | - | - | - |
| 1777754418 | 12.78° C | 40% | 1017.1 hPa | 0 mm | - | - | - |
| 1777753818 | 12.22° C | 42% | 1017.2 hPa | 0 mm | - | - | - |
| 1777753217 | 12.22° C | 37% | 1017.3 hPa | 0 mm | - | - | - |
| 1777752617 | 12.78° C | 37% | 1017.4 hPa | 0 mm | - | - | - |
| 1777752017 | 12.78° C | 38% | 1017.6 hPa | 0 mm | - | - | - |
| 1777751418 | 12.22° C | 40% | 1017.7 hPa | 0 mm | - | - | - |
| 1777750817 | 11.67° C | 42% | 1017.8 hPa | 0 mm | - | - | - |
* Rain latest hour (hover to see other rain measurements)
** Current wind speed in m/s (hover to see current wind gust speed)